• In Hungary
  • List of Countries
  • For 7 days
  • Water Temperature
  • Satellite Maps
  • Weather Map
  • News
  • Weather Widgets
  • user-avatar
    Login

    Hourly Weather Voerde

    Today, 19 January, Friday

    Time Temperature Precipitation Wind Pressure Humidity
    00:00 +3°C° 0 mm 2 mps 749 mmHg 93%
    01:00 +2°C° 0.5 mm 3 mps 749 mmHg 92%
    02:00 +2°C° 0.5 mm 3 mps 750 mmHg 91%
    03:00 +1°C° 0.5 mm 4 mps 750 mmHg 90%
    04:00 +1°C° 0.6 mm 4 mps 750 mmHg 88%
    05:00 +1°C° 0.6 mm 5 mps 750 mmHg 87%
    06:00 +1°C° 0 mm 4 mps 751 mmHg 86%
    07:00 +1°C° 0.1 mm 4 mps 752 mmHg 85%
    08:00 +1°C° 0.1 mm 5 mps 752 mmHg 84%
    09:00 +1°C° 0.1 mm 5 mps 753 mmHg 83%
    10:00 +2°C° 0 mm 5 mps 753 mmHg 80%
    11:00 +2°C° 0 mm 5 mps 753 mmHg 76%
    12:00 +3°C° 0 mm 5 mps 753 mmHg 73%
    13:00 +3°C° 0.1 mm 5 mps 753 mmHg 73%
    14:00 +4°C° 0.1 mm 4 mps 753 mmHg 73%
    15:00 +4°C° 0.1 mm 4 mps 753 mmHg 73%
    16:00 +3°C° 0.2 mm 4 mps 753 mmHg 76%
    17:00 +3°C° 0.2 mm 4 mps 753 mmHg 79%
    18:00 +2°C° 0.2 mm 3 mps 753 mmHg 83%
    19:00 +1°C° 0.2 mm 4 mps 753 mmHg 83%
    20:00 +1°C° 0.2 mm 4 mps 753 mmHg 83%
    21:00 +1°C° 0.2 mm 4 mps 753 mmHg 83%
    22:00 +1°C° 0.1 mm 4 mps 753 mmHg 83%
    23:00 +1°C° 0.1 mm 4 mps 753 mmHg 83%

    Tomorrow, 20 January, Saturday

    Time Temperature Precipitation Wind Pressure Humidity
    00:00 0°C° 0.1 mm 5 mps 753 mmHg 83%
    01:00 0°C° 0.2 mm 5 mps 753 mmHg 84%
    02:00 0°C° 0.2 mm 5 mps 753 mmHg 86%
    03:00 0°C° 0.2 mm 5 mps 753 mmHg 87%
    04:00 0°C° 0 mm 4 mps 753 mmHg 88%
    05:00 -1°C° 0 mm 4 mps 752 mmHg 88%
    06:00 -1°C° 0 mm 4 mps 752 mmHg 89%
    07:00 -1°C° 0 mm 4 mps 752 mmHg 88%
    08:00 -1°C° 0 mm 4 mps 752 mmHg 87%
    09:00 0°C° 0 mm 4 mps 752 mmHg 86%
    10:00 +1°C° 0 mm 3 mps 751 mmHg 85%
    11:00 +2°C° 0 mm 3 mps 751 mmHg 83%
    12:00 +4°C° 0 mm 2 mps 750 mmHg 82%
    13:00 +3°C° 0.2 mm 2 mps 750 mmHg 83%
    14:00 +3°C° 0.2 mm 2 mps 750 mmHg 85%
    15:00 +4°C° 0.2 mm 1 mps 749 mmHg 86%
    16:00 +4°C° 0.2 mm 1 mps 750 mmHg 87%
    17:00 +3°C° 0.2 mm 1 mps 750 mmHg 88%
    18:00 +3°C° 0.2 mm 1 mps 750 mmHg 89%
    19:00 +3°C° 0.1 mm 1 mps 751 mmHg 89%
    20:00 +3°C° 0.1 mm 1 mps 751 mmHg 89%
    21:00 +3°C° 0.1 mm 1 mps 752 mmHg 89%
    22:00 +2°C° 0 mm 1 mps 752 mmHg 90%
    23:00 +2°C° 0 mm 1 mps 753 mmHg 90%

    Day after tomorrow, 21 January, Sunday

    Time Temperature Precipitation Wind Pressure Humidity
    00:00 +1°C° 0 mm 1 mps 753 mmHg 91%
    01:00 -1°C° 0 mm 2 mps 754 mmHg 91%
    02:00 -1°C° 0 mm 2 mps 754 mmHg 91%
    03:00 -1°C° 0 mm 2 mps 755 mmHg 92%
    04:00 -1°C° 0 mm 2 mps 755 mmHg 92%
    05:00 -1°C° 0 mm 2 mps 756 mmHg 92%
    06:00 -1°C° 0 mm 2 mps 756 mmHg 92%
    07:00 -1°C° 0 mm 2 mps 756 mmHg 92%
    08:00 +1°C° 0 mm 2 mps 757 mmHg 91%
    09:00 +1°C° 0 mm 2 mps 757 mmHg 90%
    10:00 +2°C° 0 mm 2 mps 757 mmHg 89%
    11:00 +3°C° 0 mm 2 mps 757 mmHg 88%
    12:00 +3°C° 0 mm 2 mps 757 mmHg 86%
    13:00 +3°C° 0 mm 2 mps 757 mmHg 86%
    14:00 +3°C° 0 mm 2 mps 757 mmHg 87%
    15:00 +3°C° 0 mm 2 mps 757 mmHg 87%
    16:00 +3°C° 0 mm 2 mps 757 mmHg 87%
    17:00 +2°C° 0 mm 2 mps 757 mmHg 87%
    18:00 +1°C° 0 mm 3 mps 757 mmHg 87%
    19:00 +1°C° 0.1 mm 3 mps 757 mmHg 85%
    20:00 0°C° 0.1 mm 4 mps 756 mmHg 84%
    21:00 0°C° 0.1 mm 4 mps 756 mmHg 83%
    22:00 0°C° 0.1 mm 4 mps 756 mmHg 84%
    23:00 +1°C° 0.1 mm 5 mps 755 mmHg 85%

    22 January, Monday

    Time Temperature Precipitation Wind Pressure Humidity
    00:00 +1°C° 0.1 mm 5 mps 755 mmHg 86%
    01:00 +1°C° 0.2 mm 4 mps 754 mmHg 88%
    02:00 +3°C° 0.2 mm 4 mps 753 mmHg 90%
    03:00 +3°C° 0.2 mm 4 mps 753 mmHg 92%
    04:00 +4°C° 1.7 mm 4 mps 752 mmHg 94%
    05:00 +4°C° 1.7 mm 3 mps 752 mmHg 95%
    06:00 +5°C° 1.7 mm 3 mps 751 mmHg 97%
    07:00 +7°C° 0.4 mm 3 mps 751 mmHg 97%
    08:00 +7°C° 0.4 mm 3 mps 752 mmHg 97%
    09:00 +7°C° 0.4 mm 4 mps 752 mmHg 97%
    10:00 +8°C° 1 mm 3 mps 752 mmHg 97%
    11:00 +8°C° 1 mm 3 mps 752 mmHg 98%
    12:00 +9°C° 1 mm 3 mps 752 mmHg 98%
    13:00 +8°C° 1.4 mm 3 mps 752 mmHg 98%
    14:00 +8°C° 1.4 mm 2 mps 752 mmHg 98%
    15:00 +8°C° 1.4 mm 2 mps 752 mmHg 98%
    16:00 +8°C° 0.5 mm 2 mps 753 mmHg 98%
    17:00 +8°C° 0.5 mm 2 mps 754 mmHg 98%
    18:00 +7°C° 0.5 mm 2 mps 755 mmHg 98%
    19:00 +7°C° 0 mm 2 mps 756 mmHg 97%
    20:00 +6°C° 0 mm 2 mps 757 mmHg 97%
    21:00 +5°C° 0 mm 2 mps 758 mmHg 96%
    22:00 +5°C° 0 mm 2 mps 758 mmHg 96%
    23:00 +4°C° 0 mm 2 mps 759 mmHg 95%

    23 January, Tuesday

    Time Temperature Precipitation Wind Pressure Humidity
    00:00 +4°C° 0 mm 2 mps 760 mmHg 95%
    01:00 +4°C° 0 mm 2 mps 760 mmHg 95%
    02:00 +3°C° 0 mm 2 mps 761 mmHg 95%
    03:00 +3°C° 0 mm 2 mps 761 mmHg 95%
    04:00 +3°C° 0 mm 2 mps 761 mmHg 95%
    05:00 +3°C° 0 mm 2 mps 762 mmHg 95%
    06:00 +3°C° 0 mm 2 mps 762 mmHg 95%
    07:00 +3°C° 0 mm 3 mps 762 mmHg 95%
    08:00 +4°C° 0 mm 3 mps 762 mmHg 95%
    09:00 +5°C° 0 mm 4 mps 763 mmHg 95%
    10:00 +6°C° 0 mm 4 mps 763 mmHg 92%
    11:00 +7°C° 0 mm 5 mps 763 mmHg 88%
    12:00 +7°C° 0 mm 5 mps 763 mmHg 85%
    13:00 +8°C° 0 mm 5 mps 763 mmHg 85%
    14:00 +8°C° 0 mm 4 mps 763 mmHg 85%
    15:00 +8°C° 0 mm 4 mps 763 mmHg 85%
    16:00 +8°C° 0 mm 4 mps 764 mmHg 86%
    17:00 +7°C° 0 mm 4 mps 764 mmHg 87%
    18:00 +7°C° 0 mm 4 mps 764 mmHg 88%
    19:00 +7°C° 0 mm 4 mps 764 mmHg 89%
    20:00 +7°C° 0 mm 4 mps 764 mmHg 90%
    21:00 +7°C° 0 mm 4 mps 764 mmHg 91%
    22:00 +7°C° 0 mm 4 mps 764 mmHg 92%
    23:00 +7°C° 0 mm 4 mps 764 mmHg 93%

    24 January, Wednesday

    Time Temperature Precipitation Wind Pressure Humidity
    00:00 +7°C° 0 mm 4 mps 764 mmHg 93%
    01:00 +7°C° 0 mm 4 mps 764 mmHg 93%
    02:00 +7°C° 0 mm 4 mps 764 mmHg 93%
    03:00 +7°C° 0 mm 4 mps 763 mmHg 93%
    04:00 +7°C° 0 mm 5 mps 763 mmHg 93%
    05:00 +7°C° 0 mm 5 mps 763 mmHg 93%
    06:00 +8°C° 0 mm 5 mps 763 mmHg 93%
    07:00 +8°C° 0 mm 5 mps 763 mmHg 92%
    08:00 +9°C° 0 mm 5 mps 763 mmHg 91%
    09:00 +9°C° 0 mm 5 mps 763 mmHg 90%
    10:00 +10°C° 0 mm 6 mps 763 mmHg 86%
    11:00 +11°C° 0 mm 6 mps 762 mmHg 82%
    12:00 +12°C° 0 mm 7 mps 762 mmHg 78%
    13:00 +13°C° 0 mm 6 mps 762 mmHg 78%
    14:00 +11°C° 0 mm 6 mps 762 mmHg 77%
    15:00 +12°C° 0 mm 5 mps 761 mmHg 77%
    16:00 +12°C° 0 mm 5 mps 761 mmHg 78%
    17:00 +10°C° 0 mm 5 mps 761 mmHg 80%
    18:00 +10°C° 0 mm 5 mps 761 mmHg 81%
    19:00 +10°C° 0 mm 5 mps 760 mmHg 82%
    20:00 +10°C° 0 mm 5 mps 760 mmHg 84%
    21:00 +10°C° 0 mm 5 mps 760 mmHg 85%
    22:00 +10°C° 0 mm 5 mps 759 mmHg 84%
    23:00 +9°C° 0 mm 5 mps 759 mmHg 84%
    Show more